Location: Bout de Bas
(50.3332°N, 1.9389°E)
Time: 15:17:13
(UTC+00:00)

Daily predictions for brighter satellites

Satellite Brightness Start Highest point End
(mag) Time Altitude Azimuth Time Altitude Azimuth Time Altitude Azimuth
CZ-4 R/B 1.3 18:05:33 10° SSE 18:09:21 62° ENE 18:13:15 10° N
H-2A R/B 2.2 18:04:05 10° SSE 18:09:29 66° ENE 18:14:54 10° N
USA 305 3.2 18:05:45 10° W 18:10:01 62° NNW 18:14:15 10° ENE
Gbstr 26 Del rocket 3.2 18:08:26 10° WSW 18:12:44 89° SSE 18:18:01 10° ENE
IRS-1C Rocket 4.1 18:08:00 10° SSE 18:13:17 84° ENE 18:18:36 10° NNW
SL-4 R/B 1.7 18:11:32 10° W 18:15:09 70° N 18:18:35 10° E
Meteor 1-20 Rocket 4.2 18:10:18 10° S 18:15:41 64° E 18:21:08 10° NNE
Cosmos 1302 Rocket 4.0 18:10:42 10° SSW 18:15:53 79° ESE 18:21:08 10° NNE
CSL-04 DEB 4.3 18:14:09 10° NNE 18:18:07 81° ESE 18:22:07 10° SSW
USA 307 3.3 18:17:04 10° W 18:21:19 59° NNW 18:25:33 10° ENE
FALCON 9 DEB 3.1 18:19:25 10° WNW 18:22:52 87° NNE 18:26:13 10° ESE
ATLAS CENTAUR R/B 2.5 18:21:45 10° SSE 18:24:23 19° ESE 18:26:57 10° ENE
USA 306 3.3 18:20:30 10° W 18:24:43 58° NNW 18:28:57 10° ENE
Cosmos 1354 Rocket 4.2 18:19:52 10° NNW 18:25:01 52° ENE 18:30:07 10° SE
USA 186 3.2 18:25:07 12° ENE 18:25:24 12° ENE 18:26:29 10° NE
Cosmos 44 Rocket 3.7 18:21:08 10° NW 18:26:23 76° SW 18:31:34 10° SSE
FALCON 9 DEB 3.5 18:23:57 10° W 18:27:03 49° N 18:29:48 12° ENE
ERS-2 2.6 18:23:54 10° NNE 18:27:21 38° E 18:30:47 10° S
Cosmos 1844 Rocket 2.8 18:23:11 10° NNW 18:28:41 55° NE 18:34:08 10° SE
Cosmos 2084 Rocket 3.5 18:24:32 10° NW 18:28:52 85° SW 18:33:20 10° SE
FALCON 9 DEB 3.5 18:25:52 10° W 18:29:00 51° N 18:31:45 13° ENE
Okean-O 2.6 18:24:46 10° SSE 18:29:12 83° ENE 18:33:40 10° NNW
CSL-04 Rocket 3.8 18:25:14 10° SE 18:30:39 58° ENE 18:36:04 10° N
USA 308 3.3 18:27:42 10° W 18:31:56 56° N 18:35:51 12° ENE
CSL-04 Debris 4.2 18:26:38 10° SSE 18:31:59 63° ENE 18:37:25 10° N
Cosmos 1271 Rocket 4.0 18:29:32 10° NNW 18:33:06 44° W 18:36:41 10° S
Cosmos 1666 4.0 18:32:06 10° SE 18:34:42 18° E 18:37:21 10° NE
Cosmos 1503 Rocket 3.9 18:30:06 10° NNW 18:35:19 69° ENE 18:40:28 10° SSE
H-2A R/B 3.9 18:32:28 10° N 18:36:09 33° WNW 18:39:50 10° SW
HJ-1C 3.3 18:33:48 10° SSE 18:37:06 69° ENE 18:40:24 10° N
SKYMED 2 4.3 18:33:05 10° N 18:37:22 57° WNW 18:41:37 10° SSW
MOS 1 Rocket 4.4 18:33:30 10° N 18:38:23 54° WNW 18:43:30 10° SSW
PSLV R/B 3.8 18:34:24 10° NNE 18:38:30 66° ESE 18:42:32 10° S
Cosmos 2341 Rocket 4.4 18:32:59 10° SSE 18:38:44 38° E 18:44:26 10° NNE
Cosmos 1844 3.9 18:34:46 10° NNW 18:40:30 57° NE 18:46:08 10° SE
CZ-4B R/B 2.6 18:39:36 10° N 18:42:29 42° WNW 18:45:25 10° SW
Cosmos 1470 Rocket 3.6 18:38:10 10° S 18:42:34 61° E 18:46:58 10° NNE
Cosmos 2360 Rocket 2.5 18:39:41 10° S 18:44:57 43° ESE 18:50:17 10° NE
Cosmos 2278 Rocket 3.6 18:41:11 10° NNW 18:45:35 22° NE 18:48:36 15° ENE
Ariane Rocket 3.8 18:42:04 11° ESE 18:46:11 30° ENE 18:50:35 10° N
Cosmos 1602 3.8 18:42:17 10° SSW 18:46:12 82° W 18:50:09 10° N
Meteor 1-19 Rocket 4.5 18:42:11 10° NNW 18:48:10 81° W 18:53:58 10° S
Meteor 2-4 Rocket 3.8 18:46:55 10° N 18:52:45 71° ENE 18:58:38 10° SSE
Cosmos 1703 Rocket 3.7 18:48:43 10° N 18:53:03 51° ENE 18:57:17 10° SSE
Cosmos 1500 3.1 18:49:35 10° S 18:53:14 57° E 18:56:56 10° NNE
DMSP B5D1-3 4.5 18:48:24 10° NNE 18:53:35 75° ESE 18:58:44 10° S
Cosmos 2333 Rocket 3.2 18:50:52 10° SSE 18:55:19 24° ESE 18:59:48 10° NE
Cosmos 1689 Rocket 1.9 18:53:02 10° NNE 18:55:55 87° WNW 18:58:48 10° SSW
SL-08 RB Rocket 3.6 18:53:16 10° SSE 18:57:48 84° ENE 19:02:24 10° NNW
Meteor 2-12 Rocket 4.4 18:52:44 10° S 18:58:48 77° E 19:04:55 10° NNE
ERBS 3.0 18:56:49 10° WSW 19:00:03 49° NNW 19:02:19 18° NE
Cosmos 1980 Rocket 4.0 18:56:18 10° WSW 19:01:19 31° NW 19:06:21 10° NNE
Cosmos 1933 Rocket 3.5 18:59:09 10° S 19:03:27 67° E 19:07:50 10° NNE
Aureole 2 Rocket 3.2 19:01:28 10° NW 19:03:52 36° WSW 19:06:11 10° S
Cosmos 1943 Rocket 4.3 19:02:09 10° N 19:04:01 11° NNE 19:05:53 10° NE
Cosmos 2242 Rocket 3.5 19:06:35 10° N 19:11:08 86° E 19:15:36 10° S
Resurs 01 Rocket 2.9 19:12:41 22° ENE 19:12:49 22° ENE 19:16:15 10° N
Cosmos 2322 Rocket 2.4 19:09:15 10° SW 19:14:51 75° WNW 19:20:31 10° NNE
Cosmos 1461 4.4 19:10:35 10° WSW 19:15:06 42° NW 19:19:37 10° NNE
Abrixas rocket 1.8 19:13:45 10° WSW 19:16:07 54° S 19:16:07 54° S
Lacrosse 4 Rocket 3.4 19:13:29 10° SSE 19:14:29 15° SSE 19:14:29 15° SSE
SME Rocket 4.5 19:09:19 10° NNE 19:17:28 48° E 19:22:48 10° SSE
FALCON 9 DEB 3.3 19:17:01 10° WNW 19:20:10 52° N 19:20:47 43° NE
Helios 1A Rocket 4.0 19:16:21 10° S 19:20:15 45° W 19:24:10 10° NNW
SJ-6B 2.8 19:22:30 22° SSE 19:25:02 69° ENE 19:29:05 10° N
COSMOS 2428 3.4 19:20:24 10° SSE 19:32:12 - NE 19:24:51 30° ESE
ASTEX 1 3.6 19:21:53 10° NNE 19:26:37 47° E 19:30:11 17° SSE
GP-B 3.4 19:24:46 10° S 19:29:11 69° W 19:33:38 10° N
Meteor 1-14 Rocket 4.5 19:24:17 10° SSW 19:29:48 70° WNW 19:35:22 10° N
MOS 1 4.2 19:25:33 17° SSE 19:29:58 66° ENE 19:35:37 10° N
Cosmos 2219 Rocket 2.5 19:26:59 10° S 19:32:07 39° ESE 19:37:18 10° NE
Meteor 1-11 Rocket 3.8 19:27:04 10° S 19:32:35 52° E 19:38:00 10° NNE
FALCON 9 DEB 3.1 19:29:28 10° WNW 19:32:37 57° N 19:32:42 57° NNE
MetOp-A 4.2 19:28:43 10° SSE 19:34:05 83° WSW 19:39:30 10° NNW
OBJECT-B 0.6 19:36:24 75° NE 19:36:24 75° NE 19:39:31 10° N
Resurs 1-3 3.6 19:38:47 49° ESE 19:39:32 56° ENE 19:43:52 10° N
SJ 16-02 1.9 19:35:30 10° N 19:39:34 39° ENE 19:39:34 39° ENE
SL-16 R/B 3.3 19:34:16 10° WSW 19:39:42 44° NW 19:45:08 10° NNE
SeaSat 1 2.6 19:35:18 10° NNE 19:40:16 75° WNW 19:45:11 10° SW
Okean 1-7 3.6 19:35:57 10° NNW 19:40:16 59° W 19:44:32 10° S
Cosmos 1066 Rocket 4.2 19:36:46 10° N 19:42:29 70° ENE 19:45:41 27° SSE
Meteor 1-13 Rocket 4.3 19:36:54 10° NNW 19:42:53 88° W 19:48:31 11° S
USA 234 3.3 19:39:54 27° ENE 19:43:31 57° SE 19:49:56 10° SW
CZ-2C R/B 3.3 19:42:26 10° N 19:47:51 57° WNW 19:53:07 10° SSW
Cosmos 2369 Rocket 4.3 19:46:58 10° N 19:49:19 13° NNE 19:50:42 12° NE
USA 305 3.2 19:46:10 10° WNW 19:50:23 53° N 19:50:56 49° NE
BREEZE-M DEB (TANK) 2.3 19:47:57 10° W 19:50:37 78° S 19:51:09 63° ESE
IRS-1A Rocket 4.2 19:46:43 19° SSE 19:50:57 86° WSW 19:56:33 10° NNW
Cosmos 2322 3.6 19:46:22 10° SSW 19:52:02 68° ESE 19:57:44 10° NNE
DMSP B5D2-2 4.2 19:48:29 10° N 19:53:43 73° WNW 19:58:54 10° SSW
SL-4 R/B 2.2 19:51:14 10° WNW 19:54:12 52° WSW 19:54:12 52° WSW
USA 186 3.9 19:56:42 20° WNW 19:56:42 20° WNW 19:58:05 10° NW
Cosmos 1869 Rocket 3.5 19:53:24 10° SSW 19:57:46 82° W 20:02:12 10° N
Cosmos 1898 Rocket 4.3 19:53:27 10° N 19:57:51 33° NE 19:57:51 33° NE
Gbstr 26 Del rocket 3.4 19:55:07 10° W 19:59:52 78° N 20:00:59 56° ENE
SL-8 Rocket 4.1 19:54:04 10° SSW 20:00:18 77° WNW 20:06:32 10° N
USA 307 3.2 19:57:31 10° WNW 20:01:44 55° N 20:01:49 54° NNE
ATLAS CENTAUR R/B 1.7 19:59:22 10° WSW 20:02:54 51° NW 20:03:11 50° NNW
FALCON 9 DEB 4.5 19:59:55 10° WNW 20:01:56 35° WNW 20:01:56 35° WNW
Cosmos 1378 3.6 20:00:49 10° NNW 20:03:53 57° NNW 20:03:53 57° NNW
USA 306 3.2 20:00:54 10° WNW 20:05:03 56° N 20:05:03 56° N
Cosmos 1666 4.0 20:06:30 10° SW 20:10:00 38° WNW 20:13:32 10° N
Cosmos 1844 Rocket 4.4 20:07:32 10° NW 20:12:16 29° WSW 20:16:59 10° SSW
USA 308 3.4 20:08:07 10° WNW 20:11:59 55° NNW 20:11:59 55° NNW
Cosmos 2366 rocket 4.2 20:09:03 10° SSW 20:15:22 74° WNW 20:21:45 10° N
Landsat 7 4.4 20:17:05 45° NNE 20:17:05 45° NNE 20:20:39 10° N
SL-08 R/B 4.4 20:11:59 22° S 20:16:22 76° E 20:22:51 10° NNE
NOSS 3-3 (A) 4.4 20:09:03 10° NW 20:16:24 77° NE 20:18:42 51° ESE
NOSS 3-3 (C) 4.4 20:09:09 10° NW 20:16:30 76° NE 20:18:47 51° ESE
Okean 3 4.4 20:14:22 10° NNW 20:18:27 46° W 20:19:31 37° SW
SPOT 3 Rocket 3.4 20:18:38 80° SE 20:18:54 85° ENE 20:24:10 10° NNW
ARIANE 5 R/B 4.3 20:21:38 24° NNE 20:21:38 24° NNE 20:23:41 10° N
Cosmos 2333 4.4 20:17:04 10° SW 20:22:43 71° WNW 20:28:28 10° NNE
Cosmos 2221 Rocket 4.0 20:19:23 10° NNW 20:23:09 61° NW 20:23:09 61° NW
Ariane Rocket 3.9 20:22:15 24° SSW 20:24:58 46° W 20:29:54 10° NNW
SPOT 1/Viking Rocket 4.2 20:29:56 44° NNE 20:29:56 44° NNE 20:33:41 10° N
Cosmos 2360 Rocket 3.4 20:23:41 10° WSW 20:29:00 41° NW 20:34:23 10° NNE
Cosmos 2278 Rocket 2.1 20:24:48 10° NNW 20:30:28 86° NE 20:30:28 86° NE
Cosmos 1727 Rocket 4.4 20:28:49 10° NNW 20:34:54 61° W 20:37:44 32° SSW
Cosmos 990 Rocket 4.4 20:29:59 10° NNW 20:34:05 54° N 20:34:05 54° N
Cosmos 2333 Rocket 2.5 20:33:26 10° SW 20:39:05 67° WNW 20:44:50 10° NNE
Cosmos 1821 Rocket 3.9 20:41:55 75° NE 20:41:55 75° NE 20:47:34 10° N
Cosmos 1000 Rocket 4.5 20:41:54 10° NNW 20:48:12 80° W 20:48:32 77° SW
Resurs 01 Rocket 2.9 20:50:14 39° NW 20:50:14 39° NW 20:53:20 10° NNW
MetOp-B 4.4 20:50:11 64° NW 20:50:11 64° NW 20:54:46 10° NNW
Cosmos 1943 Rocket 3.6 20:44:43 10° NNW 20:48:24 28° NNE 20:48:24 28° NNE
Cosmos 2123 Rocket 4.2 20:55:02 10° N 21:00:09 61° N 21:00:09 61° N
COSMOS 2428 3.8 21:03:41 10° SW 21:14:01 15° NNE 21:14:53 10° NNE
Cosmos 2219 Rocket 3.2 21:10:44 10° WSW 21:16:03 43° NW 21:21:25 10° NNE
SJ 16-02 3.6 21:14:22 10° NW 21:16:35 22° WNW 21:16:35 22° WNW
Terra 4.1 21:21:49 18° N 21:21:49 18° N 21:23:06 10° N
USA 234 3.5 21:27:15 64° NW 21:27:15 64° NW 21:33:08 10° WSW
USA 281 4.0 21:34:30 43° N 21:34:30 43° N 21:39:03 10° NNW
Cosmos 2369 Rocket 4.0 21:29:55 10° NNW 21:32:29 24° N 21:32:29 24° N
Cosmos 1943 Rocket 4.5 22:28:17 10° NW 22:29:55 20° NW 22:29:55 20° NW
